Location: Normandy Village
(37.8755°N, 122.2655°W)
Time: 11:13:26
(UTC+00:00)

USA 215 - Pass Details

Date: 22 September 2019
Orbit: 1102 x 1106 km, 123.0° (Epoch: 14 September)

Event Time Altitude Azimuth Distance (km) Brightness Sun altitude
Rises 12:03:00 0° 49° (NE) 3,923 7.3 -22.8°
Reaches altitude 10° 12:05:35 10° 55° (NE) 2,962 6.6 -22.3°
Maximum altitude 12:11:54 50° 129° (SE) 1,376 3.9 -21.2°
Enters shadow 12:17:18 14° 201° (SSW) 2,638 4.9 -20.2°
